When you browse on this site, cookies collect data to enhance your experience and personalize the content and advertising you see.
Visit our Privacy Policy to learn more. By continuing to use the site, you agree to this use of cookies and data.
  • In Germany
  • List of Countries
  • For 7 days
  • Water Temperature
  • Satellite Maps
  • Weather Map
  • Weather Widgets
  • user-avatar
    Login

    Hourly Weather Ndjole

    Today, 18 November, Sunday

    Time Temperature Precipitation Wind Pressure Humidity
    00:00 +26°C° 0.2 mm 1 mps 752 mmHg 95%
    01:00 +26°C° 0 mm 1 mps 752 mmHg 96%
    02:00 +26°C° 0.1 mm 1 mps 752 mmHg 96%
    03:00 +24°C° 0.1 mm 0 mps 752 mmHg 96%
    04:00 +24°C° 0.1 mm 0 mps 752 mmHg 97%
    05:00 +24°C° 0.5 mm 0 mps 752 mmHg 96%
    06:00 +24°C° 0.5 mm 0 mps 752 mmHg 95%
    07:00 +24°C° 0.5 mm 0 mps 752 mmHg 95%
    08:00 +26°C° 1.4 mm 0 mps 752 mmHg 90%
    09:00 +27°C° 1.4 mm 0 mps 752 mmHg 85%
    10:00 +29°C° 1.4 mm 0 mps 752 mmHg 80%
    11:00 +31°C° 1.4 mm 1 mps 752 mmHg 78%
    12:00 +32°C° 1.4 mm 1 mps 751 mmHg 75%
    13:00 +32°C° 1.4 mm 1 mps 751 mmHg 73%
    14:00 +32°C° 0.7 mm 1 mps 750 mmHg 75%
    15:00 +31°C° 0.7 mm 1 mps 750 mmHg 78%
    16:00 +30°C° 0.7 mm 1 mps 749 mmHg 81%
    17:00 +29°C° 0.2 mm 1 mps 750 mmHg 84%
    18:00 +28°C° 0.2 mm 1 mps 750 mmHg 88%
    19:00 +26°C° 0.2 mm 0 mps 751 mmHg 91%
    20:00 +25°C° 0.4 mm 0 mps 752 mmHg 92%
    21:00 +25°C° 0.4 mm 0 mps 752 mmHg 93%
    22:00 +25°C° 0.4 mm 0 mps 753 mmHg 95%
    23:00 +25°C° 0.2 mm 0 mps 752 mmHg 96%

    Tomorrow, 19 November, Monday

    Time Temperature Precipitation Wind Pressure Humidity
    00:00 +24°C° 0.2 mm 0 mps 752 mmHg 96%
    01:00 +24°C° 0.2 mm 0 mps 752 mmHg 97%
    02:00 +24°C° 0.1 mm 0 mps 752 mmHg 97%
    03:00 +24°C° 0.1 mm 0 mps 751 mmHg 98%
    04:00 +26°C° 0.1 mm 1 mps 751 mmHg 98%
    05:00 +26°C° 0 mm 1 mps 751 mmHg 98%
    06:00 +26°C° 0 mm 1 mps 751 mmHg 97%
    07:00 +26°C° 0 mm 1 mps 752 mmHg 96%
    08:00 +28°C° 0 mm 1 mps 752 mmHg 88%
    09:00 +30°C° 0 mm 1 mps 752 mmHg 79%
    10:00 +32°C° 0 mm 1 mps 753 mmHg 71%
    11:00 +32°C° 0.1 mm 1 mps 752 mmHg 67%
    12:00 +33°C° 0.1 mm 1 mps 751 mmHg 64%
    13:00 +34°C° 0.1 mm 1 mps 750 mmHg 60%
    14:00 +33°C° 1.8 mm 1 mps 750 mmHg 67%
    15:00 +32°C° 1.8 mm 1 mps 749 mmHg 75%
    16:00 +31°C° 1.8 mm 1 mps 749 mmHg 82%
    17:00 +30°C° 0.8 mm 1 mps 749 mmHg 86%
    18:00 +29°C° 0.8 mm 1 mps 750 mmHg 90%
    19:00 +27°C° 0.8 mm 1 mps 751 mmHg 94%
    20:00 +27°C° 0.1 mm 1 mps 751 mmHg 95%
    21:00 +27°C° 0.1 mm 1 mps 752 mmHg 95%
    22:00 +25°C° 0.1 mm 0 mps 752 mmHg 96%
    23:00 +26°C° 0 mm 1 mps 752 mmHg 97%

    Day after tomorrow, 20 November, Tuesday

    Time Temperature Precipitation Wind Pressure Humidity
    00:00 +26°C° 0 mm 1 mps 752 mmHg 97%
    01:00 +26°C° 0 mm 1 mps 752 mmHg 98%
    02:00 +26°C° 0 mm 1 mps 751 mmHg 98%
    03:00 +26°C° 0 mm 1 mps 751 mmHg 98%
    04:00 +26°C° 0 mm 1 mps 750 mmHg 99%
    05:00 +26°C° 0 mm 1 mps 751 mmHg 98%
    06:00 +26°C° 0 mm 1 mps 751 mmHg 97%
    07:00 +26°C° 0 mm 1 mps 752 mmHg 96%
    08:00 +28°C° 0 mm 1 mps 752 mmHg 87%
    09:00 +30°C° 0 mm 1 mps 753 mmHg 79%
    10:00 +32°C° 0 mm 1 mps 753 mmHg 70%
    11:00 +33°C° 0.7 mm 1 mps 752 mmHg 70%
    12:00 +33°C° 0.7 mm 1 mps 752 mmHg 69%
    13:00 +34°C° 0.7 mm 1 mps 751 mmHg 68%
    14:00 +33°C° 1 mm 1 mps 750 mmHg 72%
    15:00 +32°C° 1 mm 1 mps 750 mmHg 76%
    16:00 +32°C° 1 mm 1 mps 749 mmHg 80%
    17:00 +30°C° 0.7 mm 1 mps 750 mmHg 85%
    18:00 +29°C° 0.7 mm 1 mps 751 mmHg 90%
    19:00 +27°C° 0.7 mm 1 mps 751 mmHg 95%
    20:00 +27°C° 0.3 mm 1 mps 752 mmHg 95%
    21:00 +27°C° 0.3 mm 1 mps 752 mmHg 96%
    22:00 +27°C° 0.3 mm 1 mps 753 mmHg 96%
    23:00 +26°C° 0.5 mm 1 mps 753 mmHg 96%

    21 November, Wednesday

    Time Temperature Precipitation Wind Pressure Humidity
    00:00 +26°C° 0.5 mm 1 mps 752 mmHg 96%
    01:00 +26°C° 0.5 mm 1 mps 752 mmHg 96%
    02:00 +26°C° 0.2 mm 1 mps 751 mmHg 96%
    03:00 +26°C° 0.2 mm 1 mps 751 mmHg 97%
    04:00 +25°C° 0.2 mm 1 mps 751 mmHg 97%
    05:00 +26°C° 0 mm 1 mps 751 mmHg 96%
    06:00 +26°C° 0 mm 1 mps 752 mmHg 95%
    07:00 +26°C° 0 mm 1 mps 753 mmHg 95%
    08:00 +28°C° 0 mm 1 mps 753 mmHg 85%
    09:00 +30°C° 0 mm 1 mps 753 mmHg 76%
    10:00 +32°C° 0 mm 1 mps 753 mmHg 67%
    11:00 +32°C° 0.4 mm 1 mps 752 mmHg 66%
    12:00 +33°C° 0.4 mm 1 mps 751 mmHg 66%
    13:00 +33°C° 0.4 mm 1 mps 751 mmHg 65%
    14:00 +33°C° 0.6 mm 1 mps 750 mmHg 68%
    15:00 +32°C° 0.6 mm 1 mps 750 mmHg 70%
    16:00 +32°C° 0.6 mm 2 mps 749 mmHg 73%
    17:00 +30°C° 0.4 mm 1 mps 750 mmHg 80%
    18:00 +29°C° 0.4 mm 1 mps 751 mmHg 87%
    19:00 +27°C° 0.4 mm 1 mps 752 mmHg 94%
    20:00 +27°C° 0.3 mm 1 mps 752 mmHg 94%
    21:00 +27°C° 0.3 mm 1 mps 753 mmHg 95%
    22:00 +26°C° 0.3 mm 1 mps 753 mmHg 96%
    23:00 +26°C° 0.2 mm 1 mps 753 mmHg 96%

    22 November, Thursday

    Time Temperature Precipitation Wind Pressure Humidity
    00:00 +26°C° 0.2 mm 1 mps 752 mmHg 97%
    01:00 +26°C° 0.2 mm 1 mps 752 mmHg 97%
    02:00 +26°C° 0 mm 1 mps 752 mmHg 97%
    03:00 +26°C° 0 mm 1 mps 751 mmHg 98%
    04:00 +26°C° 0 mm 1 mps 751 mmHg 98%
    05:00 +26°C° 0 mm 1 mps 751 mmHg 97%
    06:00 +26°C° 0 mm 1 mps 752 mmHg 97%
    07:00 +24°C° 0 mm 0 mps 752 mmHg 96%
    08:00 +28°C° 0 mm 1 mps 753 mmHg 89%
    09:00 +29°C° 0 mm 1 mps 753 mmHg 81%
    10:00 +31°C° 0 mm 1 mps 753 mmHg 74%
    11:00 +31°C° 0.4 mm 1 mps 752 mmHg 72%
    12:00 +32°C° 0.4 mm 1 mps 751 mmHg 70%
    13:00 +33°C° 0.4 mm 1 mps 750 mmHg 68%
    14:00 +32°C° 0.6 mm 1 mps 750 mmHg 70%
    15:00 +32°C° 0.6 mm 1 mps 750 mmHg 71%
    16:00 +32°C° 0.6 mm 1 mps 749 mmHg 73%
    17:00 +30°C° 0.4 mm 1 mps 750 mmHg 80%
    18:00 +28°C° 0.4 mm 1 mps 751 mmHg 87%
    19:00 +27°C° 0.4 mm 1 mps 752 mmHg 94%
    20:00 +27°C° 0.3 mm 1 mps 752 mmHg 95%
    21:00 +26°C° 0.3 mm 1 mps 752 mmHg 96%
    22:00 +26°C° 0.3 mm 1 mps 753 mmHg 97%
    23:00 +26°C° 0 mm 1 mps 753 mmHg 97%

    23 November, Friday

    Time Temperature Precipitation Wind Pressure Humidity
    00:00 +25°C° 0 mm 1 mps 752 mmHg 98%
    01:00 +23°C° 0 mm 0 mps 752 mmHg 98%
    02:00 +23°C° 0 mm 0 mps 752 mmHg 98%
    03:00 +23°C° 0 mm 0 mps 751 mmHg 98%
    04:00 +23°C° 0 mm 0 mps 751 mmHg 98%
    05:00 +23°C° 0 mm 0 mps 752 mmHg 98%
    06:00 +23°C° 0 mm 0 mps 752 mmHg 97%
    07:00 +24°C° 0 mm 0 mps 753 mmHg 97%
    08:00 +26°C° 0 mm 0 mps 753 mmHg 87%
    09:00 +30°C° 0 mm 1 mps 753 mmHg 77%
    10:00 +32°C° 0 mm 1 mps 753 mmHg 68%
    11:00 +33°C° 0.2 mm 1 mps 752 mmHg 65%
    12:00 +33°C° 0.2 mm 1 mps 751 mmHg 62%
    13:00 +34°C° 0.2 mm 1 mps 750 mmHg 59%
    14:00 +33°C° 0.8 mm 1 mps 750 mmHg 65%
    15:00 +32°C° 0.8 mm 1 mps 749 mmHg 71%
    16:00 +31°C° 0.8 mm 1 mps 749 mmHg 76%
    17:00 +30°C° 0.4 mm 1 mps 750 mmHg 82%
    18:00 +28°C° 0.4 mm 1 mps 750 mmHg 88%
    19:00 +27°C° 0.4 mm 1 mps 751 mmHg 93%
    20:00 +27°C° 0.1 mm 1 mps 751 mmHg 94%
    21:00 +26°C° 0.1 mm 1 mps 752 mmHg 95%
    22:00 +26°C° 0.1 mm 1 mps 752 mmHg 95%
    23:00 +26°C° 0.3 mm 1 mps 752 mmHg 96%
    Show more